TimeCST,TemperatureF,Dew PointF,Humidity,Sea Level PressureIn,VisibilityMPH,Wind Direction,Wind SpeedMPH,Gust SpeedMPH,PrecipitationIn,Events,Conditions,WindDirDegrees,DateUTC
12:15 AM,38.5,25.2,59,29.89,10.0,SSW,11.5,-,N/A,,Clear,210,2014-01-04 06:15:00
12:35 AM,38.3,25.2,59,29.89,10.0,SW,13.8,-,N/A,,Clear,220,2014-01-04 06:35:00
12:55 AM,37.6,24.8,60,29.89,10.0,SSW,12.7,-,N/A,,Clear,210,2014-01-04 06:55:00
1:15 AM,37.2,24.8,61,29.87,10.0,SW,11.5,-,N/A,,Clear,220,2014-01-04 07:15:00
1:35 AM,36.7,24.6,62,29.87,10.0,SW,11.5,-,N/A,,Clear,220,2014-01-04 07:35:00
1:55 AM,36.5,24.6,62,29.87,10.0,SW,11.5,16.1,N/A,,Clear,220,2014-01-04 07:55:00
2:15 AM,36.0,24.8,64,29.87,10.0,SW,10.4,-,N/A,,Clear,220,2014-01-04 08:15:00
2:35 AM,36.1,24.8,63,29.87,10.0,SW,11.5,-,N/A,,Clear,220,2014-01-04 08:35:00
2:55 AM,36.3,25.2,64,29.86,10.0,SW,11.5,-,N/A,,Clear,220,2014-01-04 08:55:00
3:15 AM,36.9,25.5,64,29.86,10.0,SW,10.4,-,N/A,,Clear,220,2014-01-04 09:15:00
3:35 AM,37.0,25.9,64,29.86,10.0,SW,11.5,-,N/A,,Clear,230,2014-01-04 09:35:00
3:55 AM,38.3,26.4,62,29.86,10.0,SW,10.4,-,N/A,,Clear,230,2014-01-04 09:55:00
4:15 AM,39.6,26.6,60,29.86,10.0,SW,10.4,-,N/A,,Clear,230,2014-01-04 10:15:00
4:35 AM,38.8,27.1,63,29.85,10.0,SW,10.4,-,N/A,,Clear,220,2014-01-04 10:35:00
4:55 AM,38.8,27.1,63,29.85,10.0,SW,9.2,-,N/A,,Clear,230,2014-01-04 10:55:00
5:15 AM,39.6,27.5,62,29.85,10.0,SW,12.7,-,N/A,,Clear,230,2014-01-04 11:15:00
5:35 AM,39.7,27.5,62,29.85,10.0,WSW,12.7,-,N/A,,Clear,240,2014-01-04 11:35:00
5:55 AM,42.3,27.9,57,29.85,10.0,WSW,11.5,-,N/A,,Clear,240,2014-01-04 11:55:00
6:15 AM,41.2,28.0,60,29.85,10.0,SW,10.4,-,N/A,,Clear,230,2014-01-04 12:15:00
6:35 AM,39.2,27.7,63,29.86,10.0,SW,8.1,-,N/A,,Clear,220,2014-01-04 12:35:00
6:55 AM,39.7,28.2,63,29.86,10.0,SW,12.7,-,N/A,,Clear,230,2014-01-04 12:55:00
7:15 AM,40.5,28.0,61,29.86,10.0,SW,10.4,-,N/A,,Clear,230,2014-01-04 13:15:00
7:35 AM,41.2,28.2,60,29.87,10.0,SW,11.5,-,N/A,,Clear,220,2014-01-04 13:35:00
7:55 AM,43.0,28.4,56,29.87,10.0,SW,11.5,-,N/A,,Clear,220,2014-01-04 13:55:00
8:15 AM,41.4,28.4,60,29.87,10.0,SW,11.5,-,N/A,,Clear,220,2014-01-04 14:15:00
8:35 AM,42.8,28.8,58,29.88,10.0,SW,10.4,-,N/A,,Clear,220,2014-01-04 14:35:00
8:55 AM,44.1,29.3,56,29.89,10.0,SW,9.2,-,N/A,,Clear,220,2014-01-04 14:55:00
9:15 AM,46.8,29.8,52,29.89,10.0,SW,10.4,-,N/A,,Clear,220,2014-01-04 15:15:00
9:35 AM,50.2,30.7,47,29.88,10.0,SW,10.4,-,N/A,,Clear,220,2014-01-04 15:35:00
9:55 AM,52.7,31.1,44,29.88,10.0,SW,16.1,21.9,N/A,,Clear,230,2014-01-04 15:55:00
10:15 AM,54.5,31.3,41,29.87,10.0,SW,15.0,20.7,N/A,,Clear,230,2014-01-04 16:15:00
10:35 AM,56.8,30.6,37,29.86,10.0,SW,18.4,21.9,N/A,,Clear,230,2014-01-04 16:35:00
10:55 AM,59.0,30.2,34,29.86,10.0,WSW,13.8,25.3,N/A,,Clear,250,2014-01-04 16:55:00
11:15 AM,59.2,29.7,33,29.86,10.0,WSW,16.1,-,N/A,,Clear,250,2014-01-04 17:15:00
11:35 AM,61.2,29.5,30,29.85,10.0,West,19.6,26.5,N/A,,Clear,260,2014-01-04 17:35:00
11:55 AM,62.8,29.5,29,29.84,10.0,West,23.0,31.1,N/A,,Clear,260,2014-01-04 17:55:00
12:15 PM,64.6,30.0,27,29.82,10.0,North,-9999.0,-,N/A,,Clear,0,2014-01-04 18:15:00
12:35 PM,61.7,29.3,29,29.80,10.0,WSW,19.6,28.8,N/A,,Clear,250,2014-01-04 18:35:00
12:55 PM,62.1,29.3,29,29.79,10.0,North,-9999.0,-,N/A,,Clear,0,2014-01-04 18:55:00
1:15 PM,62.1,29.3,29,29.78,10.0,WSW,17.3,27.6,N/A,,Clear,250,2014-01-04 19:15:00
1:35 PM,62.1,29.1,29,29.77,10.0,North,-9999.0,-,N/A,,Clear,0,2014-01-04 19:35:00
1:55 PM,62.4,29.1,28,29.76,10.0,West,20.7,31.1,N/A,,Clear,260,2014-01-04 19:55:00
2:15 PM,62.1,29.3,29,29.76,10.0,West,20.7,-,N/A,,Clear,260,2014-01-04 20:15:00
2:35 PM,61.7,29.7,30,29.76,10.0,West,19.6,27.6,N/A,,Clear,260,2014-01-04 20:35:00
2:55 PM,61.7,30.0,30,29.76,10.0,West,12.7,18.4,N/A,,Clear,260,2014-01-04 20:55:00
3:15 PM,62.1,30.2,30,29.75,10.0,WSW,15.0,21.9,N/A,,Clear,250,2014-01-04 21:15:00
3:35 PM,62.1,30.4,30,29.75,10.0,WSW,12.7,18.4,N/A,,Clear,250,2014-01-04 21:35:00
3:55 PM,61.9,30.7,31,29.74,10.0,WSW,10.4,-,N/A,,Clear,240,2014-01-04 21:55:00
4:15 PM,61.7,30.6,31,29.74,10.0,WSW,9.2,-,N/A,,Clear,250,2014-01-04 22:15:00
4:35 PM,61.7,30.0,30,29.74,10.0,WSW,8.1,-,N/A,,Clear,250,2014-01-04 22:35:00
4:55 PM,61.3,29.5,30,29.74,10.0,SW,8.1,-,N/A,,Clear,230,2014-01-04 22:55:00
5:15 PM,60.8,28.9,30,29.74,10.0,SW,6.9,-,N/A,,Clear,230,2014-01-04 23:15:00
5:35 PM,61.0,24.8,25,29.74,10.0,WSW,9.2,-,N/A,,Clear,240,2014-01-04 23:35:00
5:55 PM,61.0,22.8,23,29.73,10.0,WSW,8.1,-,N/A,,Clear,250,2014-01-04 23:55:00
6:15 PM,59.7,22.6,24,29.74,10.0,WSW,6.9,-,N/A,,Clear,250,2014-01-05 00:15:00
6:35 PM,59.0,22.5,24,29.73,10.0,SW,9.2,-,N/A,,Clear,220,2014-01-05 00:35:00
6:55 PM,54.5,23.7,30,29.74,10.0,South,5.8,-,N/A,,Clear,190,2014-01-05 00:55:00
7:15 PM,55.9,23.9,29,29.74,10.0,SW,8.1,-,N/A,,Clear,230,2014-01-05 01:15:00
7:35 PM,59.0,22.6,25,29.73,10.0,WSW,13.8,19.6,N/A,,Clear,240,2014-01-05 01:35:00
7:55 PM,58.3,22.6,25,29.73,10.0,WSW,15.0,-,N/A,,Clear,240,2014-01-05 01:55:00
8:15 PM,58.1,23.0,26,29.74,10.0,WSW,13.8,-,N/A,,Clear,250,2014-01-05 02:15:00
8:35 PM,57.4,23.0,27,29.74,10.0,WSW,11.5,17.3,N/A,,Clear,250,2014-01-05 02:35:00
8:55 PM,56.7,23.4,28,29.75,10.0,WSW,11.5,-,N/A,,Clear,250,2014-01-05 02:55:00
9:15 PM,56.3,23.5,28,29.76,10.0,WSW,12.7,-,N/A,,Clear,250,2014-01-05 03:15:00
9:35 PM,56.3,23.5,28,29.76,10.0,West,11.5,-,N/A,,Clear,260,2014-01-05 03:35:00
9:55 PM,55.4,23.7,29,29.76,10.0,West,12.7,-,N/A,,Clear,260,2014-01-05 03:55:00
10:15 PM,54.7,23.5,30,29.76,10.0,West,11.5,-,N/A,,Clear,260,2014-01-05 04:15:00
10:35 PM,54.9,23.2,29,29.77,10.0,West,8.1,-,N/A,,Clear,270,2014-01-05 04:35:00
10:55 PM,52.9,23.5,32,29.79,10.0,WNW,4.6,-,N/A,,Clear,290,2014-01-05 04:55:00
11:15 PM,39.7,28.6,64,29.86,10.0,NE,24.2,38.0,N/A,,Clear,40,2014-01-05 05:15:00
11:35 PM,37.2,28.2,70,29.88,10.0,NE,19.6,33.4,N/A,,Clear,40,2014-01-05 05:35:00
11:55 PM,34.7,27.1,74,29.90,10.0,NNE,19.6,27.6,N/A,,Clear,30,2014-01-05 05:55:00